Location: Unspecified
(0.0000°N, 0.0000°E)
Time: 09:58:22
(UTC+00:00)

Vanguard 2 - All Passes

Search period start: 27 May 2017 00:00
Search period end: 06 June 2017 00:00
Orbit: 554 x 2940 km, 32.9° (Epoch: 26 May)

Date Brightness Start Highest point End Pass type
(mag) Time Alt. Az. Time Alt. Az. Time Alt. Az.
27 May - 00:19:31 10° SSW 00:29:45 26° SSE 00:36:51 10° ESE night (unlit)
27 May - 02:31:05 10° SW 02:41:08 75° SSE 02:47:01 10° ENE visible
27 May - 04:45:28 10° W 04:49:25 17° NW 04:52:35 10° N visible
27 May - 13:25:54 10° NNW 13:33:54 48° NE 13:46:53 10° ESE daylight
27 May - 15:33:59 10° WNW 15:44:49 63° SSW 16:01:27 10° SE daylight
27 May - 17:47:03 10° WSW 17:59:08 29° SSW 18:13:25 10° SSE daylight
27 May - 20:07:06 10° SW 20:16:39 16° S 20:25:48 10° SSE visible
27 May - 22:25:10 10° SSW 22:34:32 17° S 22:42:12 10° SE visible
28 May - 00:37:24 10° SW 00:48:52 34° SSE 00:56:15 10° E night (unlit)
28 May - 02:49:39 10° WSW 02:59:25 73° NW 03:05:10 10° NE visible
28 May - 11:39:20 10° N 11:42:53 14° NE 11:47:13 10° ENE daylight
28 May - 13:43:44 10° NW 13:52:03 66° NE 14:06:05 10° ESE daylight
28 May - 15:52:48 10° W 16:03:39 48° SSW 16:19:39 10° SE daylight
28 May - 18:07:28 10° WSW 18:18:47 23° SSW 18:31:36 10° SSE visible
28 May - 20:27:50 10° SSW 20:36:59 16° S 20:45:33 10° SSE visible
28 May - 22:43:24 10° SSW 22:54:17 21° SSE 23:02:41 10° ESE visible
29 May - 00:55:26 10° SW 01:07:45 47° SSE 01:15:14 10° E night (unlit)
29 May - 03:08:37 10° WSW 03:17:31 46° NW 03:23:01 10° NNE visible
29 May - 11:55:52 10° N 12:01:05 22° NE 12:08:24 10° E daylight
29 May - 14:01:47 10° NW 14:10:20 89° NE 14:24:54 10° SE daylight
29 May - 16:11:59 10° W 16:22:43 38° SSW 16:37:45 10° SE daylight
29 May - 18:28:17 10° SW 18:38:43 19° SSW 18:50:04 10° SSE visible
29 May - 20:47:42 10° SSW 20:57:18 16° S 21:06:01 10° SE visible
29 May - 23:01:27 10° SSW 23:13:47 27° SSE 23:22:44 10° ESE visible
30 May - 01:13:39 10° SW 01:26:25 66° SSE 01:33:51 10° ENE visible
30 May - 03:28:03 10° W 03:35:31 29° NW 03:40:33 10° NNE visible
30 May - 12:13:06 10° NNW 12:19:08 34° NE 12:28:30 10° E daylight
30 May - 14:20:07 10° WNW 14:28:48 69° SSW 14:43:25 10° SE daylight
30 May - 16:31:36 10° WSW 16:41:59 30° SSW 16:55:49 10° SSE daylight
30 May - 18:49:16 10° SW 18:58:54 17° S 19:09:00 10° SSE visible
30 May - 21:06:45 10° SSW 21:17:28 18° S 21:26:49 10° SE visible
30 May - 23:19:28 10° SW 23:33:04 35° SSE 23:42:19 10° E night (unlit)
31 May - 01:32:08 10° SW 01:44:52 89° NNW 01:52:09 10° NE visible
31 May - 03:48:16 10° W 03:53:33 18° NW 03:57:34 10° N visible
31 May - 12:30:42 10° NW 12:37:10 50° NE 12:47:58 10° ESE daylight
31 May - 14:38:43 10° WNW 14:47:30 51° SSW 15:01:42 10° SE daylight
31 May - 16:51:39 10° WSW 17:01:31 24° SSW 17:13:57 10° SSE daylight
31 May - 19:09:58 10° SW 19:19:14 16° S 19:28:40 10° SSE visible
31 May - 21:25:16 10° SSW 21:37:23 22° SSE 21:47:30 10° ESE visible
31 May - 23:37:32 10° SW 23:52:06 45° SSE 00:01:29 10° E night (unlit)
01 Jun - 01:50:56 10° WSW 02:03:05 64° NW 02:10:12 10° NE visible
01 Jun - 04:10:37 10° NW 04:11:44 10° NW 04:12:46 10° NNW visible
01 Jun - 10:44:38 10° NNE 10:46:53 12° NE 10:49:26 10° ENE daylight
01 Jun - 12:48:35 10° NW 12:55:18 74° NE 13:06:57 10° ESE daylight
01 Jun - 14:57:41 10° W 15:06:25 38° SSW 15:19:48 10° SE daylight
01 Jun - 17:12:08 10° SW 17:21:18 19° SSW 17:32:16 10° SSE daylight
01 Jun - 19:29:58 10° SSW 19:39:36 16° S 19:49:09 10° SE visible
01 Jun - 21:43:29 10° SSW 21:57:04 27° SSE 22:07:50 10° ESE visible
01 Jun - 23:55:44 10° SW 00:10:56 60° SSE 00:20:17 10° ENE night (unlit)
02 Jun - 02:10:08 10° WSW 02:21:11 44° NW 02:27:58 10° NNE visible
02 Jun - 11:00:51 10° N 11:04:59 21° NE 11:10:35 10° E daylight
02 Jun - 13:06:45 10° WNW 13:13:36 78° SW 13:25:35 10° SE daylight
02 Jun - 15:17:03 10° WSW 15:25:33 29° SSW 15:37:49 10° SSE daylight
02 Jun - 17:32:53 10° SW 17:41:20 17° S 17:51:00 10° SSE daylight
02 Jun - 19:49:11 10° SSW 19:59:52 18° S 20:10:08 10° SE visible
02 Jun - 22:01:34 10° SW 22:16:29 34° SSE 22:27:42 10° E visible
03 Jun - 00:14:08 10° SW 00:29:32 79° SE 00:38:46 10° ENE night (unlit)
03 Jun - 02:29:52 10° W 02:39:15 30° NW 02:45:28 10° NNE visible
03 Jun - 11:18:04 10° NNW 11:22:59 34° NE 11:30:25 10° ESE daylight
03 Jun - 13:25:12 10° WNW 13:32:09 54° SSW 13:43:54 10° SE daylight
03 Jun - 15:36:51 10° WSW 15:44:55 23° SSW 15:55:47 10° SSE daylight
03 Jun - 17:53:32 10° SSW 18:01:34 15° S 18:10:27 10° SSE daylight
03 Jun - 20:07:49 10° SSW 20:19:56 21° SSE 20:31:10 10° ESE visible
03 Jun - 22:19:39 10° SW 22:35:39 43° SSE 22:47:06 10° E visible
04 Jun - 00:32:46 10° WSW 00:47:55 79° NW 00:56:58 10° NE visible
04 Jun - 02:50:19 10° W 02:57:22 20° NW 03:02:34 10° N visible
04 Jun - 11:35:44 10° NW 11:41:00 55° NE 11:49:37 10° ESE daylight
04 Jun - 13:43:59 10° W 13:50:55 39° SSW 14:02:00 10° SE daylight
04 Jun - 15:57:09 10° SW 16:04:31 18° SSW 16:13:49 10° SSE daylight
04 Jun - 18:13:34 10° SSW 18:21:53 15° S 18:30:50 10° SE visible
04 Jun - 20:26:06 10° SSW 20:39:44 26° SSE 20:51:53 10° ESE visible
04 Jun - 22:37:48 10° SW 22:54:36 55° SSE 23:06:07 10° ENE visible
05 Jun - 00:51:46 10° WSW 01:06:10 58° NW 01:14:56 10° NE visible
05 Jun - 03:12:05 10° WNW 03:15:40 12° NW 03:18:43 10° NNW visible
05 Jun - 09:49:48 10° NNE 09:51:06 11° NE 09:52:29 10° NE daylight
05 Jun - 11:53:43 10° NW 11:59:10 88° NNE 12:08:21 10° SE daylight
05 Jun - 14:03:11 10° WSW 14:09:54 28° SSW 14:19:54 10° SSE daylight
05 Jun - 16:17:50 10° SW 16:24:20 15° S 16:32:07 10° SSE daylight
05 Jun - 18:32:50 10° SSW 18:42:09 17° SSE 18:52:00 10° SE visible
05 Jun - 20:44:11 10° SSW 20:59:14 32° SSE 21:12:07 10° E visible
05 Jun - 22:56:04 10° SW 23:13:20 71° SE 23:24:49 10° ENE visible
